Regional Weather Roundup
Issued by NWS

Home | Current Version | Previous Version | Text Only | Print | Product List | Glossary On
Versions: 1 2 3 4 5 6 7 8 9 10 11 12 13 14 15 16 17 18 19 20 21 22 23 24 25 26 27 28 29 30 31 32 33 34 35 36 37 38 39 40 41 42 43 44 45 46 47 48 49 50
000
ASCA44 KEWX 300420
RWRMX

LATIN AMERICA AND CARIBBEAN REGIONAL WEATHER ROUNDUP
NATIONAL WEATHER SERVICE AUSTIN/SAN ANTONIO TX
1100 PM CDT FRI JUL 29 2016

NOTE: "FAIR" INDICATED FEW OR NO CLOUDS BELOW 12,000 FEET WITH NO
SIGNIFICANT WEATHER AND/OR OBSTRUCTIONS TO VISIBILITY.

BAJA CALIFORNIA

CITY           SKY/WX    TMP DP  RH WIND       PRES   REMARKS
LA PAZ         MOCLDY    81  61  50 S5        29.88
MEXICALI       PTCLDY    91  72  52 SE18      29.66  HX  98
S.J. DEL CABO  PTCLDY    82  70  65 NW7       29.88R
TIJUANA        PTCLDY    70  61  73 NW8       29.85R

NORTHWESTERN MEXICO

CITY           SKY/WX    TMP DP  RH WIND       PRES   REMARKS
CULIACAN       MOCLDY    79  77  94 CALM      29.88
DURANGO        MOCLDY    63  61  94 CALM      30.27R
HERMOSILLO     CLOUDY    90  75  62 SW8       29.85  HX 100
CD. JUAREZ     PTCLDY    84  61  45 SE12      29.97
LOS MOCHIS     MOCLDY    82  70  65 SE8       29.86R

NORTHEASTERN MEXICO

CITY           SKY/WX    TMP DP  RH WIND       PRES   REMARKS
CHIHUAHUA      PTCLDY    68  61  77 SW5       30.13
MONCLOVA         N/A    N/A N/A N/A MISG        N/A
MONTERREY      CLOUDY    79  68  69 E7        30.00R
REYNOSA          N/A    N/A N/A N/A MISG        N/A
SALTILLO       PTCLDY    70  57  64 CALM      30.20S
TORREON        LGT RAIN  70  64  83 SW13      30.11S
CD. VICTORIA     N/A    N/A N/A N/A MISG        N/A

WESTERN MEXICO

CITY           SKY/WX    TMP DP  RH WIND       PRES   REMARKS
AGUASCALIENTES MOCLDY    63  54  72 SW9       30.28
COLIMA           N/A    N/A N/A N/A MISG        N/A
DEL BAJIO      CLOUDY    63  59  88 N8        30.31R
GUADALAJARA    MOCLDY    64  59  82 CALM      30.20
MAZATLAN       MOCLDY    81  77  89 NE3       29.90R
P. VALLARTA    CLOUDY    79  75  89 N5        29.89R
URUAPAN          N/A    N/A N/A N/A MISG        N/A
ZACATECAS      MOCLDY    63  54  72 W8        30.31R

CENTRAL MEXICO

CITY           SKY/WX    TMP DP  RH WIND       PRES   REMARKS
CUERNAVACA       N/A    N/A N/A N/A MISG        N/A
MEXICO CITY    MOCLDY    61  54  77 W12       30.34R
MORELIA        CLOUDY    61  59  94 NE2       30.26
POZA RICA        N/A    N/A N/A N/A MISG        N/A
QUERETARO      MOCLDY    64  55  72 E8        30.33R
S. LUIS POTOSI CLEAR     64  52  63 SE7       30.28R
TAMPICO        PTCLDY    82  75  78 E12       29.97R
TOLUCA         MOCLDY    55  50  82 SW5       30.41R

SOUTHERN MEXICO

CITY           SKY/WX    TMP DP  RH WIND       PRES   REMARKS
ACAPULCO       CLEAR     82  77  83 CALM      29.87R HX  91
B. DE HUATULCO   N/A    N/A N/A N/A MISG        N/A
P. ESCONDIDO   PTCLDY    81  73  78 E7        29.98R
VERACRUZ       PTCLDY    82  77  83 E2        29.96R HX  91

YUCATAN PENINSULA

CITY           SKY/WX    TMP DP  RH WIND       PRES   REMARKS
CAMPECHE         N/A    N/A N/A N/A MISG        N/A
CANCUN         PTCLDY    82  79  89 E8        30.04R HX  93
CHETUMAL         N/A    N/A N/A N/A MISG        N/A
CD. DEL CARMEN   N/A    N/A N/A N/A MISG        N/A
COZUMEL        PTCLDY    79  75  89 E7        30.03R
MERIDA         MOCLDY    79  72  78 NE7       30.00S
MINATITLAN       N/A    N/A N/A N/A MISG        N/A
TAPACHULA      MOCLDY    79  73  83 CALM      29.85R
TUX. GUTIERREZ MOCLDY    75  66  73 E15       29.97R
VILLAHERMOSA   MOCLDY    75  73  94 E5        29.96R

CENTRAL AMERICA

CITY           SKY/WX    TMP DP  RH WIND       PRES   REMARKS
MANAGUA        PTCLDY    77  72  83 E5        29.92R

CARIBBEAN

CITY           SKY/WX    TMP DP  RH WIND       PRES   REMARKS
ARUBA          PTCLDY    82  77  83 E18       29.89S HX  91
CURACAO        PTCLDY    82  77  83 E13       29.92S HX  91
KINGSTON       PTCLDY    84  73  70 NE5       29.94S HX  91
NASSAU         MOCLDY    82  70  65 NE5       30.07S
SAN JUAN       PTCLDY    82  79  89 E8        30.03S HX  93
SANTO DOMINGO  PTCLDY    73  73 100 CALM      30.00S THUNDER
ST. CROIX      PTCLDY    82  73  74 E14       30.03
ST. MAARTEN    MOCLDY    82  75  78 E14       30.03S

$$





USA.gov is the U.S. government's official web portal to all federal, state and local government web resources and services.